Regional Weather Roundup
Issued by NWS Newport/Morehead, NC

Current Version | Previous Version | Text Only | Print | Product List | Glossary Off
Versions: 1 2 3 4 5 6 7 8 9 10 11 12 13 14 15 16 17 18 19 20 21 22 23 24 25 26 27 28 29 30 31 32 33 34 35 36 37 38 39 40 41 42 43 44 45 46 47 48 49 50
000 ASUS42 KMHX 232010 RWRMHX WEATHER ROUNDUP FOR EASTERN NORTH CAROLINA NATIONAL WEATHER SERVICE NEWPORT/MOREHEAD CITY NC 400 PM EDT WED JUL 23 2014 NOTE: "FAIR" INDICATES FEW OR NO CLOUDS BELOW 12,000 FEET WITH NO SIGNIFICANT WEATHER AND/OR OBSTRUCTIONS TO VISIBILITY NCZ015>017-031-032-045>047-102-103-232100- NORTH COAST CITY SKY/WX TMP DP RH WIND PRES REMARKS EDENTON MOSUNNY 88 74 61 SW7 29.96F ELIZABETH CITY PTSUNNY 87 74 64 SW9 29.95F KITTY HAWK CLEAR 86 74 66 SW6 29.95F MANTEO NOT AVBL $$ NCZ045>047-081-094-103-104-232100- CENTRAL COAST CITY SKY/WX TMP DP RH WIND PRES REMARKS FRISCO MOSUNNY 84 76 76 SW12G21 30.00F SWANQUARTER N/A 86 N/A N/A S13 29.94F $$ NCZ095-097-098-100-101-232100- SOUTHERN COAST CITY SKY/WX TMP DP RH WIND PRES REMARKS BEAUFORT LGT RAIN 83 77 82 S9 30.00F CEDAR ISLAND N/A 84 N/A N/A S13G18 30.03S JACKSONVILLE PTSUNNY 85 75 72 S13 29.98F NEWPORT NOT AVBL PINEY ISLAND MOCLDY 83 77 82 S15G22 29.98F WILMINGTON PTSUNNY 87 76 69 S10 29.99F $$ NCZ011>013-027>030-043-044-078>080-089-090>093-098-232100- COASTAL PLAIN CITY SKY/WX TMP DP RH WIND PRES REMARKS AHOSKIE SUNNY 89 73 60 S6 29.94F CLINTON MOSUNNY 85 78 80 SW5 29.98F ELIZABETHTOWN MOSUNNY 89 71 55 S3 29.99F GOLDSBORO MOSUNNY 91 77 63 SW12 29.95F HX 103 GREENVILLE MOSUNNY 90 73 58 W6 29.98F HAVELOCK MOSUNNY 82 75 79 S6 30.00F KENANSVILLE MOSUNNY 86 72 63 CALM 29.99F KINSTON MOSUNNY 90 73 58 S5 29.97F NEW BERN MOSUNNY 86 75 69 S10G20 30.00F RICHLANDS PTSUNNY 88 75 66 SE8 29.98F ROANOKE RAPIDS NOT AVBL ROCKY MOUNT PTSUNNY 91 73 55 SW7 29.96F WASHINGTON SUNNY 87 73 63 SW8 29.97F WHITEVILLE MOSUNNY 90 73 57 S6 29.98F $$ AMZ130-135-150-152-154-156-158-170-250-252-270-ANZ085-086-088-633-658-670-232100- MARINE OBSERVATIONS STATION/POSITION TIME TEMP WIND PRES WAVE SWELL AIR SEA DIR/SP/G HT/PER HT/PER (UTC) (F) (DEG/KT/KT) (MB) (FT/S) (FT/S) CHESAPEAKE LIGHT NOT AVBL BUOY 44014 2000 78 80 200/ 8/ 10 1014.3 2/ 6 2/ 6 DUCK 2000 84 74 220/ 7/ 10 1013.9 2E DUCK 2000 N/A 2/ 5 OREGON INLET 2000 81 81 180/ 17/ 19 1014.8 BUOY 44095 2000 79 N/A 3/ 7 20E OREGON INLET 1900 VRB 12/ 14 N/A HATTERAS CG 2000 82 82 200/ 12/ 16 1016.1 DIAMOND BUOY 2000 VRB 19/ 23 1015.2 4/ 5 2/ 7 CAPE LOOKOUT 1900 81 180/ 11/ 12 1016.7 BEAUFORT LAB 2000 80 82 190/ 11/ 13 1015.5 30 SE NEW RIVER 2000 80 82 220/ 10/ 12 1016.4 3/ 6 3/ 6 5 SE WRIGHTSVILL 1900 78 82 170/ 10/ 12 N/A BUOY 41002 1856 82 83 230/ 17/ 19 1019.5 4/ 5 2/10 BUOY 41004 2000 82 84 190/ 8/ 10 1016.6 3/ 7 3/ 7 $$

USA.gov is the U.S. government's official web portal to all federal, state and local government web resources and services.